Regional Weather Roundup
Issued by NWS

Home | Current Version | Previous Version | Text Only | Print | Product List | Glossary Off
Versions: 1 2 3 4 5 6 7 8 9 10 11 12 13 14 15 16 17 18 19 20 21 22 23 24 25 26 27 28 29 30 31 32 33 34 35 36 37 38 39 40 41 42 43 44 45 46 47 48 49 50

000
ASUS43 KFSD 291602
RWRSD

WEATHER ROUNDUP FOR SOUTH DAKOTA
NATIONAL WEATHER SERVICE SIOUX FALLS SD
1100 AM CDT SAT AUG 29 2015

NOTE: "FAIR" INDICATES FEW OR NO CLOUDS BELOW 12,000 FEET WITH NO
SIGNIFICANT WEATHER AND/OR OBSTRUCTIONS TO VISIBILITY.


SDZ001>005-009-010-012>017-291700-
NORTHWEST AND NORTH CENTRAL SOUTH DAKOTA

CITY           SKY/WX    TMP DP  RH WIND       PRES   REMARKS
FAITH            N/A     76  58  53 S7        30.01S
MOBRIDGE       SUNNY     74  65  73 SE3       29.96S
$$

SDZ012>016-024>037-041>051-057-063-072>074-291700-
SOUTHWEST AND SOUTH CENTRAL SOUTH DAKOTA

CITY           SKY/WX    TMP DP  RH WIND       PRES   REMARKS
RAPID CTY ARPT SUNNY     73  59  61 SE5       30.06S
PIERRE         SUNNY     74  65  73 S6        29.99F
CUSTER         SUNNY     78  45  30 VRB6      30.24R
ELLSWORTH AFB  SUNNY     77  55  47 S3        30.05S
PHILIP         MOSUNNY   74  61  63 W3        30.02S
PINE RIDGE     SUNNY     76  53  44 SW3       30.12S
WINNER         FAIR      74  61  63 SW9       30.04F
$$

SDZ004>011-016>023-039-040-291700-
NORTHEAST SOUTH DAKOTA

CITY           SKY/WX    TMP DP  RH WIND       PRES   REMARKS
ABERDEEN       SUNNY     70  64  81 S12       29.98F
WATERTOWN      SUNNY     69  62  78 S12       30.04F
BROOKINGS      SUNNY     66  59  77 SW5       30.09R
$$

SDZ017-020-022-023-036>040-048>070-291700-
SOUTHEAST SOUTH DAKOTA

CITY           SKY/WX    TMP DP  RH WIND       PRES   REMARKS
SIOUX FALLS    MOSUNNY   63  58  83 VRB5      30.08R
HURON          MOSUNNY   70  64  81 S9        30.02S
CHAMBERLAIN    MOSUNNY   71  65  83 S5        30.04S
MITCHELL       MOSUNNY   70  64  81 S8        30.06R
YANKTON        CLOUDY    59  57  94 S5        30.08R
$$

ABBREVIATIONS USED IN REMARKS
   TC - TEMPERATURE IN CELSIUS
  WCI - WIND CHILL INDEX
   HX - HEAT INDEX
  VSB - VISIBILITY




USA.gov is the U.S. government's official web portal to all federal, state and local government web resources and services.